Regional Weather Roundup
Issued by NWS

Home | Current Version | Previous Version | Text Only | Print | Product List | Glossary On
Versions: 1 2 3 4 5 6 7 8 9 10 11 12 13 14 15 16 17 18 19 20 21 22 23 24 25 26 27 28 29 30 31 32 33 34 35 36 37 38 39 40 41 42 43 44 45 46 47 48 49 50
000
ASUS44 KMEG 231110
RWRTN
TENNESSEE HOURLY STATE WEATHER ROUNDUP
NATIONAL WEATHER SERVICE MEMPHIS TN
600 AM CDT TUE MAY 23 2017

TNZ002-004-019-021-049-052-054-088>092-231200-
WEST TENNESSEE

CITY           SKY/WX    TMP DP  RH WIND       PRES   REMARKS
MEMPHIS INTL   CLOUDY    66  61  84 CALM      29.81F
NWS MEMPHIS      N/A     63 N/A N/A MISG        N/A
JACKSON        CLOUDY    63  60  90 CALM      29.82S
DYERSBURG      CLOUDY    63  59  87 N3        29.83S
COVINGTON      CLOUDY    63  63 100 CALM      29.81F
UNION CITY     CLOUDY    61  59  94 N3        29.82S
BOLIVAR        CLOUDY    61  59  94 CALM      29.81S
PARIS          CLOUDY    61  57  88 CALM      29.81F
HUNTINGDON     CLOUDY    63  59  88 CALM      29.82R
SELMER         MOCLDY    59  59 100 CALM      29.81F
SAVANNAH       CLOUDY    61  61 100 CALM      29.80F
$$

TNZ008-025-027-028-033-062-065-066-231200-
NORTH MIDDLE TENNESSEE

CITY           SKY/WX    TMP DP  RH WIND       PRES   REMARKS
NASHVILLE      CLOUDY    63  56  78 N3        29.83F
PORTLAND       MOCLDY    59  57  94 CALM      29.82F
CLARKSVILLE    CLOUDY    61  55  81 E3        29.83F
SMYRNA         CLOUDY    62  57  83 MISG        N/A
COOKEVILLE     PTCLDY    59  59 100 CALM      29.82S
GALLATIN       MOCLDY    61  55  82 CALM      29.86R
CROSSVILLE     CLOUDY    59  57  93 CALM      29.86F
$$

TNZ061-075-076-078-094-096-097-231200-
SOUTH MIDDLE TENNESSEE

CITY           SKY/WX    TMP DP  RH WIND       PRES   REMARKS
FAYETTEVILLE   CLOUDY    64  64 100 NE5       29.80F FOG
TULLAHOMA      CLOUDY    63  63 100 SE6       29.83S
WINCHESTER     CLOUDY    63  61  94 SE6       29.81F
MCMINNVILLE    MOCLDY    61  61 100 CALM      29.83S
COLUMBIA       CLOUDY    61  59  94 CALM      29.81S
SHELBYVILLE    CLOUDY    61  59  94 CALM      29.82S
$$

TNZ017-018-042-046-047-231200-
NORTHEAST TENNESSEE

CITY           SKY/WX    TMP DP  RH WIND       PRES   REMARKS
TRI CITIES     LGT RAIN  63  59  87 CALM      29.89R
ELIZABETHTON   DRIZZLE   63  61  94 CALM      29.88R
$$

TNZ012-013-036-069-073-074-231200-
CENTRAL EAST TENNESSEE

CITY           SKY/WX    TMP DP  RH WIND       PRES   REMARKS
KNOXVILLE      CLOUDY    63  62  97 E5        29.83F FOG
OAK RIDGE      CLOUDY    62  58  86 CALM      29.85F
DOWNTOWN KNOXV CLOUDY    63  63 100 CALM      29.84F
GATLINBURG     CLOUDY    63  63 100 CALM      29.85F
MORRISTOWN     CLOUDY    63  63 100 S5        29.86S
JACKSBORO      CLEAR     59  57  94 CALM      29.87F
$$

TNZ083-085-099-231200-
SOUTHEAST TENNESSEE

CITY           SKY/WX    TMP DP  RH WIND       PRES   REMARKS
CHATTANOOGA    LGT RAIN  64  62  93 SW3       29.84S FOG
$$

SKY/WX REPORTED AS FAIR MEANS FEW OR NO CLOUDS BELOW
12 THOUSAND FEET.





USA.gov is the U.S. government's official web portal to all federal, state and local government web resources and services.